Flag for U.S.A. Weather past 2 weeks in Leesburg, Virginia, U.S.A.

Now
86 °F

Sunny.


Feels Like: 87 °F
Forecast: 61 / 88 °F
Wind: 5 mph from West

Location: Leesburg / Godfrey

Current Time: Aug 27, 2014 at 2:01:10 PM

Latest Report: Aug 27, 2014 at 1:15 PM


Visibility: 10 mi

Pressure: 30.04 "Hg

Humidity: 49%

Dew point: 64 °F

Location of LeesburgLocation

Historic Weather in Leesburg — Graph

°F

Leesburg temperature yesterday

Maximum temperature yesterday: 86 °F (at 4:15 PM)
Minimum temperature yesterday: 57 °F (at 5:55 AM)
Average temperature yesterday: 72 °F

Past Weeks' High & Low Weather Summary

 TemperatureHumidityPressure
High88 °F (Aug 17, 4:35 PM)100% (Aug 12, 12:15 PM)30.22 "Hg (Aug 12, 12:15 PM)
Low54 °F (Aug 15, 6:15 AM)37% (Aug 15, 2:55 PM)29.78 "Hg (Aug 12, 8:35 PM)
Average72 °F80%30.00 "Hg
* Reported Aug 12 12:15 PM — Aug 27 12:15 PM, Leesburg, Weather by CustomWeather, © 2014

Note: Actual official high and low records may vary slightly from our data, if they occured in-between our weather recording intervals... More about our weather records

Advertising

Leesburg weather history for previous 24 hours

 ConditionsComfort  
Time TempWeatherWind HumidityBarometerVisibility
12:15 PM
Aug 27
82 °FSunny.3 mph55%30.07 "Hg10 mi
10:55 AM81 °FSunny.3 mph58%30.10 "Hg10 mi
10:15 AM77 °FSunny.5 mph65%30.10 "Hg10 mi
9:55 AM77 °FSunny.No wind65%30.10 "Hg10 mi
9:35 AM73 °FSunny.No wind78%30.11 "Hg10 mi
9:15 AM73 °FSunny.No wind78%30.10 "Hg10 mi
8:55 AM72 °FSunny.No wind88%30.10 "Hg10 mi
8:35 AM70 °FSunny.No wind88%30.10 "Hg10 mi
8:15 AM68 °FSunny.No wind88%30.10 "Hg10 mi
7:55 AM64 °FSunny.No wind100%30.10 "Hg10 mi
7:35 AM63 °FSunny.No wind100%30.10 "Hg10 mi
7:15 AM61 °FClear.3 mph100%30.09 "Hg10 mi
6:35 AM63 °FClear.No wind94%30.08 "Hg10 mi
6:15 AM63 °FClear.No wind100%30.08 "Hg10 mi
5:55 AM61 °FClear.No wind100%30.08 "Hg10 mi
5:35 AM61 °FClear.3 mph100%30.08 "Hg10 mi
5:15 AM61 °FClear.3 mph100%30.07 "Hg10 mi
4:55 AM63 °FClear.No wind100%30.07 "Hg10 mi
4:15 AM63 °FClear.3 mph100%30.07 "Hg10 mi
3:55 AM63 °FClear.No wind100%30.07 "Hg10 mi
3:35 AM63 °FClear.No wind100%30.07 "Hg10 mi
3:15 AM63 °FClear.No wind100%30.07 "Hg10 mi
2:55 AM64 °FClear.No wind100%30.07 "Hg10 mi
2:15 AM64 °FClear.No wind100%30.08 "Hg10 mi
1:55 AM64 °FClear.No wind100%30.08 "Hg10 mi
1:35 AM64 °FClear.No wind100%30.09 "Hg10 mi
1:15 AM66 °FClear.No wind94%30.09 "Hg10 mi
12:55 AM66 °FClear.No wind100%30.10 "Hg10 mi
12:35 AM68 °FClear.3 mph94%30.11 "Hg10 mi
12:15 AM68 °FClear.No wind100%30.11 "Hg10 mi
11:55 PM
Aug 26
68 °FClear.No wind100%30.11 "Hg10 mi
11:35 PM68 °FClear.No wind100%30.12 "Hg10 mi
11:15 PM70 °FClear.No wind94%30.13 "Hg10 mi
10:55 PM70 °FClear.No wind94%30.13 "Hg10 mi
10:35 PM72 °FPassing clouds.3 mph88%30.13 "Hg10 mi
10:15 PM72 °FOvercast.3 mph88%30.14 "Hg10 mi
9:55 PM72 °FOvercast.No wind88%30.14 "Hg10 mi
9:35 PM73 °FOvercast.No wind83%30.14 "Hg10 mi
9:15 PM72 °FPassing clouds.5 mph88%30.14 "Hg10 mi
8:55 PM73 °FPassing clouds.No wind83%30.13 "Hg10 mi
8:15 PM75 °FPartly sunny.No wind78%30.11 "Hg10 mi
7:55 PM77 °FScattered clouds.3 mph74%30.11 "Hg10 mi
7:15 PM81 °FSunny.3 mph62%30.11 "Hg10 mi
6:55 PM81 °FSunny.5 mph62%30.11 "Hg10 mi
6:15 PM84 °FSunny.No wind51%30.11 "Hg10 mi
5:55 PM82 °FSunny.No wind51%30.11 "Hg10 mi
5:35 PM82 °FScattered clouds.3 mph51%30.11 "Hg10 mi
5:15 PM86 °FPartly sunny.5 mph49%30.11 "Hg10 mi
4:55 PM86 °FPartly sunny.3 mph46%30.12 "Hg10 mi
4:35 PM86 °FScattered clouds.No wind49%30.13 "Hg10 mi
4:15 PM86 °FPartly sunny.No wind46%30.13 "Hg10 mi
3:55 PM84 °FScattered clouds.No wind51%30.14 "Hg10 mi
3:15 PM84 °FPartly sunny.6 mph51%30.15 "Hg10 mi
2:55 PM82 °FSunny.3 mph51%30.16 "Hg10 mi
2:35 PM82 °FScattered clouds.3 mph51%30.16 "Hg10 mi
2:15 PM82 °FScattered clouds.5 mph51%30.18 "Hg10 mi
Weather by CustomWeather, © 2014

See weather overviewHow to use our weather pages